• MPC Preparation (Info)

  • MPEC 2013-O16 : 2013 OG

    The following Minor Planet Electronic Circular may be linked-to from your own Web pages, but must not otherwise be redistributed electronically.

    A form allowing access to any MPEC is at the bottom of this page.


    Read MPEC 2013-O15 Read MPEC 2013-O17


    M.P.E.C. 2013-O16                                Issued 2013 July 17, 23:55 UT
    
         The Minor Planet Electronic Circulars contain information on unusual
             minor planets and routine data on comets.  They are published
       on behalf of Commission 20 of the International Astronomical Union by the
              Minor Planet Center, Smithsonian Astrophysical Observatory,
                              Cambridge, MA 02138, U.S.A.
    
                 Prepared using the Tamkin Foundation Computer Network
    
                                  MPC@CFA.HARVARD.EDU
                URL https://www.minorplanetcenter.net/    ISSN 1523-6714
    
                                        2013 OG
    
    Observations:
         K13O00G* C2013 07 16.47270 18 32 59.270+26 42 21.93         18.1 rLEO016F51
         K13O00G  C2013 07 16.48454 18 33 00.676+26 44 02.39         18.1 rLEO016F51
         K13O00G KC2013 07 17.01997 18 34 19.45 +27 59 42.2                qEO016J95
         K13O00G KC2013 07 17.02261 18 34 19.79 +28 00 04.3                qEO016J95
         K13O00G KC2013 07 17.02903 18 34 20.61 +28 00 58.7          18.0 RqEO016J95
         K13O00G KC2013 07 17.03089 18 34 20.87 +28 01 14.4                qEO016J95
         K13O00G KC2013 07 17.03219 18 34 21.03 +28 01 25.3          18.1 RqEO016J95
         K13O00G KC2013 07 17.07368 18 34 25.85 +28 07 20.4          18.6 VqEO016C95
         K13O00G KC2013 07 17.07690 18 34 26.28 +28 07 47.5          18.3 VqEO016C95
         K13O00G KC2013 07 17.08012 18 34 26.71 +28 08 14.3          17.9 VqEO016C95
         K13O00G KC2013 07 17.16894618 34 43.20 +28 21 00.4          18.2 VqEO016H21
         K13O00G KC2013 07 17.17136218 34 43.51 +28 21 21.1          17.7 VqEO016H21
         K13O00G KC2013 07 17.17376018 34 43.80 +28 21 41.3          18.1 VqEO016H21
         K13O00G KC2013 07 17.17585 18 34 44.56 +28 21 59.3          18.1 RqEO016H36
         K13O00G KC2013 07 17.17605118 34 44.09 +28 22 00.9          18.1 VqEO016H21
         K13O00G KC2013 07 17.17762 18 34 44.79 +28 22 14.5          18.0 RqEO016H36
         K13O00G KC2013 07 17.18133 18 34 44.62 +28 22 50.8          17.7 RrEO016850
         K13O00G KC2013 07 17.18399 18 34 45.60 +28 23 09.0          18.2 RqEO016H36
         K13O00G KC2013 07 17.19560 18 34 46.36 +28 24 52.3          17.8 RrEO016850
         K13O00G KC2013 07 17.20741 18 34 47.81 +28 26 31.5          18.1 RrEO016850
         K13O00G KC2013 07 17.21933 18 34 49.32 +28 28 12.3          17.7 RrEO016850
         K13O00G KC2013 07 17.23288 18 34 50.94 +28 30 06.6          17.6 RrEO016850
         K13O00G KC2013 07 17.24642 18 34 52.64 +28 32 01.1          17.6 RrEO016850
         K13O00G !C2013 07 17.36171 18 35 09.14 +28 48 14.6          16.9 RtEO016673
         K13O00G !C2013 07 17.36227 18 35 09.23 +28 48 19.6          17.3 RtEO016673
         K13O00G !C2013 07 17.36483 18 35 09.56 +28 48 41.5          16.7 RtEO016673
         K13O00G !C2013 07 17.36547 18 35 09.63 +28 48 46.7          17.7 RtEO016673
         K13O00G KC2013 07 17.84064 18 36 24.96 +29 55 12.6          17.8 VtEO016595
         K13O00G KC2013 07 17.84893 18 36 26.04 +29 56 22.8          17.2 RrEO016106
         K13O00G KC2013 07 17.85151 18 36 26.46 +29 56 44.3          17.7 RrEO016106
         K13O00G KC2013 07 17.85643 18 36 27.05 +29 57 25.6          17.9 VtEO016595
         K13O00G KC2013 07 17.87086 18 36 28.84 +29 59 26.3                uEO016118
         K13O00G KC2013 07 17.87399 18 36 29.21 +29 59 52.1                uEO016118
         K13O00G KC2013 07 17.87644 18 36 29.55 +30 00 13.3                uEO016118
         K13O00G KC2013 07 17.87979 18 36 29.96 +30 00 41.3                uEO016118
         K13O00G KC2013 07 17.88384 18 36 30.53 +30 01 15.1                uEO016118
         K13O00G KC2013 07 17.88719 18 36 30.97 +30 01 43.1                uEO016118
         K13O00G KC2013 07 17.92770 18 36 37.37 +30 07 18.4          18.2 VqEO016I74
         K13O00G KC2013 07 17.93117 18 36 37.85 +30 07 46.8          18.0 VqEO016I74
         K13O00G KC2013 07 17.93607 18 36 38.52 +30 08 28.2          18.0 VqEO016I74
    
    Observer details:
    106 Crni Vrh.  Observer J. Skvarc.  0.60-m f/3.3 Deltagraph.
    118 Modra.  Observer S. Gajdos.  0.6-m f/5.5 reflector + CCD.
    595 Farra d'Isonzo.  Observers A. Bresan, M. Coccolo, E. Pettarin.  Measurer
        M. Coccolo.  0.40-m f/4.5 reflector + CCD.
    673 Table Mountain Observatory, Wrightwood.  Observer J. Pittichova.
    850 Cordell-Lorenz Observatory, Sewanee.  Observers D. T. Durig, T. A. Morris.
        0.30-m f/2.8 Schmidt-Cassegrain + 765x510 CCD.
    C95 SATINO Remote Observatory, Haute Provence.  Observer J. Jahn.  0.60-m
        f/3.2 Newtonian reflector + CCD.
    F51 Pan-STARRS 1, Haleakala.  Observers N. Primak, A. Schultz, T. Goggia,
        K. Chambers.  Measurer PS1 Science Consortium.  1.8-m Ritchey-Chretien
        + CCD.
    H21 Astronomical Research Observatory, Westfield.  Observer R. Holmes.
        Measurers T. Vorobjov, L. Buzzi, S. Foglia.  0.81-m f/4.0 astrograph + CCD.
    H36 Sandlot Observatory, Scranton.  Observer G. Hug.  0.56-m reflector + CCD.
    I74 Baxter Garden Observatory, Salisbury.  Observer I. Walker.  0.25-m f/3.9
        reflector + CCD.
    J95 Great Shefford.  Observer P. Birtwhistle.  0.40-m f/6.0 Schmidt-Cassegrain
        + CCD.
    
    Orbital elements:
    2013 OG                                                  Earth MOID = 0.1356 AU
    Epoch 2013 Apr. 18.0 TT = JDT 2456400.5                 MPC
    M 328.41178              (2000.0)            P               Q
    n   0.27247135     Peri.   53.16139     +0.77088067     +0.59396844
    a   2.3564351      Node   269.24495     -0.63271522     +0.67228693
    e   0.5506819      Incl.   13.30394     -0.07358287     +0.44185039
    P   3.62           H   20.4           G   0.15           U   7
    Residuals in seconds of arc
    130716 F51  0.1-  0.0     130717 H21  0.1+  0.0     130717 106  0.6-  0.3-
    130716 F51  0.1-  0.1+    130717 H36  0.1+  0.1+    130717 106  0.3+  0.6-
    130717 J95  0.1+  0.1+    130717 850  0.0   0.2+    130717 595  0.9-  0.7-
    130717 J95  0.1+  0.1-    130717 H36  0.3+  0.4+    130717 118  0.7+  0.7+
    130717 J95  0.1-  0.0     130717 850  0.2-  0.7+    130717 118  0.1+  0.2+
    130717 J95  0.2+  0.0     130717 850  0.2-  0.1-    130717 118  0.3+  0.9+
    130717 J95  0.1+  0.1-    130717 850  0.3+  0.1-    130717 118  0.1-  0.7+
    130717 C95  0.1+  0.0     130717 850  0.4-  0.1-    130717 118  0.3+  0.6+
    130717 C95  0.2+  0.1+    130717 850  0.2-  0.3+    130717 118  0.2+  0.5+
    130717 C95  0.2+  0.1-    130717 673  0.2-  0.6-    130717 I74  0.3-  0.0
    130717 H21  0.0   0.1-    130717 673  0.0   0.3-    130717 I74  0.1-  0.7-
    130717 H21  0.1+  0.0     130717 673  0.1+  0.2+    130717 I74  0.1+  0.4-
    130717 H21  0.0   0.2-    130717 673  0.1-  0.0
    130717 H36  0.0   0.0     130717 595  0.7-  0.5-
    
    Ephemeris:
    2013 OG                  a,e,i = 2.36, 0.55, 13                  q = 1.0588
    Date    TT    R. A. (2000) Decl.     Delta      r     Elong.  Phase     V
    2013 06 17    17 57 58.7 -26 49 45   0.2399  1.2551   174.9     4.1    18.2
    ...
    2013 07 02    18 09 19.2 -06 23 12   0.1614  1.1707   161.4    16.1    17.7
    ...
    2013 07 10    18 20 03.6 +11 02 38   0.1406  1.1333   143.9    31.9    17.8
    ...
    2013 07 16    18 31 54.9 +25 34 29   0.1369  1.1095   130.1    44.5    18.0
    2013 07 17    18 34 17.5 +27 57 12   0.1372  1.1060   127.9    46.5    18.1
    2013 07 18    18 36 47.8 +30 17 39   0.1378  1.1025   125.8    48.4    18.1
    ...
    2013 07 24    18 54 45.1 +43 08 52   0.1461  1.0843   114.4    58.5    18.5
    ...
    2013 08 01    19 27 42.5 +56 11 16   0.1662  1.0674   104.0    67.3    19.0
    ...
    2013 08 16    21 01 45.1 +69 05 20   0.2156  1.0600    96.8    71.6    19.7
    
    A. U. Tomatic                (C) Copyright 2013 MPC           M.P.E.C. 2013-O16
    

    Read MPEC 2013-O15 Read MPEC 2013-O17


    MPEC number:

    Enter an MPEC number in one of the following forms:

    • 1997-B01 (the full form)
    • J97B01 (the packed version of the full form)
    • B01 (the abbreviated form)